Find Starlink 32037

NORAD ID: 60283 Int'l Des: 2024-132 Owner: SPXS Country: US Constellation: starlink operational
LEOCIRCULAR

Current View

Loading 3D Globe...

About Starlink 32037

Starlink 32037 (NORAD 60283) is a starlink constellation satellite (v2 mini) launched Jul 28, 2024 by SPXS of US. It operates in LEO, CIRCULAR orbit with a mass of 730.00 kg.

About Starlink 32037

Description loading...

Upcoming Passes

Passes for default location (London). Set your location on the main map for personalized predictions.

Altitude History

Loading altitude history...

Two-Line Element Set

1 60283U 24132F 26174.70577612 .00003833 00000-0 13523-3 0 9990
2 60283 53.1609 279.8748 0000848 98.7131 261.3967 15.31695600107793
Epoch: Jun 23, 2026 • Age: 46 hours

Current Status

Altitude 474.0 km
Velocity 7.63 km/s
Sub-Earth Point 40.12°N, 177.39°E
Launch Date Jul 28, 2024
Age 1.9 years
Type internet

Technical Details

Classification Payload
Mass 730.00 kg
Dry Mass 700.00 kg
Total Mass 730.00 kg
Length 0.30 m
Diameter 4.10 m
Span 29.00 m
Shape Box + pan
Manufacturer SPXS
Bus Type Starlink V2M
Phase Status In Orbit
Owner/State SPXS/US

Most Searched